Simultaneous Nadir Overpasses (SNOs) Predictions

Prediction of SNOs between AURA and NPP Satellite Orbit:

Table of predicted SNOs for the next 14.0 days since TLE Epoch: 6/6/2014
Index Date (AURA) Time (AURA) Lat,Lon (AURA) SZA (AURA ) Date (NPP) Time (NPP) Lat,Lon (NPP) SZA (NPP ) Distance(km) Time Diff (sec)
1 06/06/2014 23:35:53 76.74, 69.60 73.62 06/06/2014 23:35:24 76.74, 69.65 73.63 1.36 29
2 06/07/2014 00:25:05 -77.45,-120.07 107.26 06/07/2014 00:25:53 -77.46,-119.97 107.32 2.69 48
3 06/09/2014 15:03:55 -73.72, 9.53 103.18 06/09/2014 15:02:41 -73.81, 9.07 103.06 17.23 74
4 06/09/2014 15:52:15 76.98,-173.66 73.12 06/09/2014 15:52:17 76.98,-173.62 73.11 0.88 2
5 06/12/2014 07:19:28 -76.42, 132.63 106.37 06/12/2014 07:18:44 -76.42, 132.63 106.34 0.20 44
6 06/12/2014 08:08:36 77.24, -56.77 72.64 06/12/2014 08:09:09 77.25, -56.68 72.59 2.27 33
7 06/14/2014 23:35:51 -76.53,-111.10 106.62 06/14/2014 23:35:39 -76.52,-111.20 106.59 2.82 12
8 06/15/2014 00:24:59 77.35, 59.55 72.40 06/15/2014 00:26:04 77.35, 59.53 72.35 0.62 65
9 06/17/2014 15:02:56 76.21,-163.89 73.70 06/17/2014 15:01:58 76.22,-163.86 73.74 1.01 58
10 06/17/2014 15:52:07 -77.01, 6.47 107.25 06/17/2014 15:52:26 -77.02, 6.55 107.29 2.19 19
11 06/20/2014 07:19:15 76.53, -46.95 73.30 06/20/2014 07:18:49 76.54, -46.89 73.31 1.56 26




NCC Satellite Simultaneous Nadir Overpasses (SNOs) Prediction Service
